WST2202 MYNN-MYEH

Flight info

Callsign WST2202
Flight time 0h 12m
Altitude 7000
Route ZQA
Aircraft E145/M-SDFGIRW/S

Departure

Time 2026-05-04 00:12
Airport Lynden Pindling International Airport (MYNN)

Arrival

Time 2026-05-04 00:25
Airport North Eleuthera Airport (MYEH)
Time Latitude Longitude Altitude Speed Heading
2026-05-03 23:56 25.04747 -77.46595 7 ft 0 kts 179°
2026-05-04 00:05 25.04746 -77.46595 7 ft 0 kts 179°
2026-05-04 00:05 25.04743 -77.46599 7 ft 1 kts 237°
2026-05-04 00:05 25.04750 -77.46648 7 ft 9 kts 275°
2026-05-04 00:05 25.04722 -77.46721 7 ft 11 kts 229°
2026-05-04 00:06 25.04725 -77.46800 7 ft 12 kts 314°
2026-05-04 00:06 25.04792 -77.46872 7 ft 14 kts 315°
2026-05-04 00:06 25.04866 -77.46954 7 ft 15 kts 314°
2026-05-04 00:06 25.04945 -77.47047 7 ft 17 kts 314°
2026-05-04 00:07 25.05036 -77.47145 7 ft 18 kts 314°
2026-05-04 00:07 25.05129 -77.47251 7 ft 20 kts 315°
2026-05-04 00:07 25.05203 -77.47336 7 ft 9 kts 304°
2026-05-04 00:07 25.05217 -77.47369 7 ft 0 kts 284°
2026-05-04 00:08 25.05219 -77.47385 7 ft 6 kts 278°
2026-05-04 00:08 25.05218 -77.47425 7 ft 0 kts 258°
2026-05-04 00:09 25.05216 -77.47437 7 ft 2 kts 258°
2026-05-04 00:10 25.05195 -77.47496 7 ft 11 kts 239°
2026-05-04 00:10 25.05155 -77.47533 7 ft 5 kts 172°
2026-05-04 00:10 25.05131 -77.47511 7 ft 0 kts 135°
2026-05-04 00:11 25.05114 -77.47493 7 ft 14 kts 135°
2026-05-04 00:11 25.04860 -77.47211 7 ft 88 kts 135°
2026-05-04 00:11 25.04272 -77.46557 13 ft 144 kts 133°
2026-05-04 00:12 25.03514 -77.45718 341 ft 161 kts 134°
2026-05-04 00:12 25.02819 -77.44819 1022 ft 159 kts 113°
2026-05-04 00:12 25.02741 -77.43594 1469 ft 176 kts 71°
2026-05-04 00:12 25.03566 -77.42411 1576 ft 217 kts 43°
2026-05-04 00:13 25.04562 -77.40972 1757 ft 251 kts 53°
2026-05-04 00:13 25.05698 -77.39487 2537 ft 256 kts 52°
2026-05-04 00:13 25.06773 -77.37938 3356 ft 259 kts 53°
2026-05-04 00:13 25.07857 -77.36344 4113 ft 264 kts 53°
2026-05-04 00:14 25.08963 -77.34707 4876 ft 269 kts 53°
2026-05-04 00:14 25.10079 -77.33054 5647 ft 273 kts 52°
2026-05-04 00:14 25.11221 -77.31360 6327 ft 279 kts 52°
2026-05-04 00:14 25.12386 -77.29633 6929 ft 285 kts 52°
2026-05-04 00:15 25.13988 -77.27253 6996 ft 293 kts 52°
2026-05-04 00:15 25.14800 -77.26047 6996 ft 294 kts 52°
2026-05-04 00:15 25.16020 -77.24234 6989 ft 292 kts 52°
2026-05-04 00:15 25.17233 -77.22432 6990 ft 290 kts 52°
2026-05-04 00:16 25.18438 -77.20641 6988 ft 289 kts 52°
2026-05-04 00:16 25.19633 -77.18864 6986 ft 287 kts 52°
2026-05-04 00:16 25.20822 -77.17094 6989 ft 286 kts 52°
2026-05-04 00:16 25.22009 -77.15330 6990 ft 285 kts 52°
2026-05-04 00:17 25.23189 -77.13573 6989 ft 284 kts 52°
2026-05-04 00:17 25.24364 -77.11822 6988 ft 283 kts 52°
2026-05-04 00:17 25.25529 -77.10087 6979 ft 283 kts 52°
2026-05-04 00:17 25.26707 -77.08331 6754 ft 286 kts 52°
2026-05-04 00:18 25.27904 -77.06547 6487 ft 287 kts 52°
2026-05-04 00:18 25.29100 -77.04764 6044 ft 290 kts 52°
2026-05-04 00:18 25.30279 -77.03005 5504 ft 281 kts 52°
2026-05-04 00:18 25.31400 -77.01331 5020 ft 267 kts 53°
2026-05-04 00:19 25.32478 -76.99721 4532 ft 257 kts 53°
2026-05-04 00:19 25.33525 -76.98159 4046 ft 249 kts 53°
2026-05-04 00:19 25.34563 -76.96608 3610 ft 253 kts 53°
2026-05-04 00:19 25.35624 -76.95023 3133 ft 258 kts 53°
2026-05-04 00:20 25.36690 -76.93430 2699 ft 259 kts 54°
2026-05-04 00:20 25.37751 -76.91842 2360 ft 256 kts 54°
2026-05-04 00:20 25.38785 -76.90296 2290 ft 242 kts 54°
2026-05-04 00:20 25.39756 -76.88844 2282 ft 234 kts 54°
2026-05-04 00:21 25.40625 -76.87327 2287 ft 231 kts 68°
2026-05-04 00:21 25.41212 -76.85692 2290 ft 229 kts 69°
2026-05-04 00:21 25.41804 -76.84062 2289 ft 227 kts 69°
2026-05-04 00:21 25.42390 -76.82443 2339 ft 219 kts 69°
2026-05-04 00:22 25.42955 -76.80885 2101 ft 221 kts 69°
2026-05-04 00:22 25.43524 -76.79315 1859 ft 218 kts 69°
2026-05-04 00:22 25.44072 -76.77800 1674 ft 197 kts 69°
2026-05-04 00:22 25.44547 -76.76484 1467 ft 174 kts 69°
2026-05-04 00:23 25.44976 -76.75296 1201 ft 161 kts 69°
2026-05-04 00:23 25.45381 -76.74174 951 ft 154 kts 69°
2026-05-04 00:23 25.45771 -76.73099 697 ft 149 kts 68°
2026-05-04 00:23 25.46156 -76.72031 458 ft 149 kts 69°
2026-05-04 00:24 25.46540 -76.70985 343 ft 142 kts 69°
2026-05-04 00:24 25.46896 -76.69983 168 ft 139 kts 68°
2026-05-04 00:24 25.47242 -76.69025 29 ft 127 kts 69°
2026-05-04 00:24 25.47520 -76.68250 21 ft 77 kts 69°
2026-05-04 00:25 25.47582 -76.68061 21 ft 2 kts 40°
2026-05-04 00:25 25.47585 -76.68078 21 ft 6 kts 250°
2026-05-04 00:25 25.47599 -76.68127 20 ft 4 kts 331°
2026-05-04 00:25 25.47626 -76.68141 20 ft 2 kts 335°
2026-05-04 00:26 25.47631 -76.68144 20 ft 1 kts 333°
2026-05-04 00:26 25.47633 -76.68146 20 ft 0 kts 334°